GW1878 Weather Reports


Display with metric or nautical units.
time (UTC)temp
F
wind
direction
speed
MPH
gust
MPH
rain 1hr
in
rain 24hr
in
rain mn
in
humidity
%
barometer
mb
20260506071548 55 245 0.0 0.0 0.00 0.00 0.00 35 1020.5
20260506071045 55 253 0.0 2.0 0.00 0.00 0.00 35 1020.5
20260506070542 55 241 0.0 1.0 0.00 0.00 0.00 34 1020.5
20260506062016 56 236 0.0 0.0 0.00 0.00 0.00 32 1020.0
20260506061512 56 236 0.0 0.0 0.00 0.00 0.00 32 1019.9
20260506061010 56 256 0.0 0.0 0.00 0.00 0.00 32 1019.9
20260506060508 56 229 0.0 0.0 0.00 0.00 0.00 32 1019.9
20260506050937 59 223 5.0 7.0 0.00 0.00 0.00 28 1019.5
20260506050435 59 215 0.0 1.0 0.00 0.00 0.00 29 1019.4
20260506044925 59 252 5.0 9.0 0.00 0.00 0.00 29 1019.4
20260506044424 59 258 0.0 0.0 0.00 0.00 0.00 29 1019.4
20260506043920 60 199 3.0 7.0 0.00 0.00 0.00 29 1019.3
20260506043417 59 242 2.0 5.0 0.00 0.00 0.00 30 1019.5
20260506042915 60 279 0.0 1.0 0.00 0.00 0.00 30 1019.5
20260506042414 60 274 0.0 0.0 0.00 0.00 0.00 30 1019.3
20260506041912 60 252 2.0 3.0 0.00 0.00 0.00 29 1019.3
20260506041409 60 266 1.0 2.0 0.00 0.00 0.00 30 1019.2
20260506040907 60 252 0.0 0.0 0.00 0.00 0.00 30 1019.2
20260506040404 59 218 0.0 0.0 0.00 0.00 0.00 31 1019.3
20260506035900 59 268 0.0 0.0 0.00 0.00 0.00 33 1019.2
20260506035357 59 246 0.0 0.0 0.00 0.00 0.00 35 1019.3
20260506034854 59 232 1.0 2.0 0.00 0.00 0.00 35 1019.0
20260506034351 59 235 0.0 1.0 0.00 0.00 0.00 37 1019.1
20260506033848 58 243 0.0 0.0 0.00 0.00 0.00 38 1019.1
20260506033345 59 261 0.0 0.0 0.00 0.00 0.00 38 1019.1
20260506032842 59 253 0.0 0.0 0.00 0.00 0.00 38 1019.0
20260506032339 59 251 0.0 0.0 0.00 0.00 0.00 38 1018.8
20260506031836 59 269 0.0 1.0 0.00 0.00 0.00 37 1018.8
20260506031333 59 251 0.0 0.0 0.00 0.00 0.00 38 1018.7
20260506030831 59 246 0.0 0.0 0.00 0.00 0.00 37 1018.8
20260506030329 59 248 0.0 0.0 0.00 0.00 0.00 36 1018.7
20260506025825 59 263 0.0 0.0 0.00 0.00 0.00 38 1018.7
20260506025321 59 265 0.0 0.0 0.00 0.00 0.00 37 1018.6
20260506024819 60 276 0.0 1.0 0.00 0.00 0.00 37 1018.6
20260506024316 60 246 0.0 0.0 0.00 0.00 0.00 36 1018.5
20260506023812 60 285 4.0 7.0 0.00 0.00 0.00 36 1018.7
20260506023309 60 237 0.0 0.0 0.00 0.00 0.00 36 1018.5
20260506022805 60 215 4.0 8.0 0.00 0.00 0.00 36 1018.4
20260506022305 60 261 0.0 1.0 0.00 0.00 0.00 37 1018.5
20260506021801 60 254 0.0 0.0 0.00 0.00 0.00 36 1018.4
20260506021258 60 260 0.0 0.0 0.00 0.00 0.00 36 1018.5
20260506020754 60 231 0.0 1.0 0.00 0.00 0.00 35 1018.4
20260506020252 61 274 0.0 1.0 0.00 0.00 0.00 35 1018.4
20260506015750 61 238 1.0 6.0 0.00 0.00 0.00 35 1018.4
20260506015247 61 250 4.0 8.0 0.00 0.00 0.00 34 1018.1
20260506014744 61 225 0.0 0.0 0.00 0.00 0.00 35 1018.0
20260506014240 62 236 0.0 0.0 0.00 0.00 0.00 34 1018.0
20260506013737 62 258 0.0 1.0 0.00 0.00 0.00 34 1018.1
20260506013235 63 248 0.0 0.0 0.00 0.00 0.00 33 1018.0
20260506012731 63 237 2.0 3.0 0.00 0.00 0.00 32 1018.1
20260506012228 63 231 1.0 5.0 0.00 0.00 0.00 30 1018.0
20260506011725 63 235 0.0 1.0 0.00 0.00 0.00 31 1018.1
20260506011221 63 243 4.0 8.0 0.00 0.00 0.00 30 1017.9
20260506010720 63 268 2.0 7.0 0.00 0.00 0.00 28 1018.1
20260506010217 63 216 5.0 9.0 0.00 0.00 0.00 31 1018.0
20260506005714 63 215 7.0 11.0 0.00 0.00 0.00 30 1018.1
20260506005211 63 243 1.0 3.0 0.00 0.00 0.00 30 1018.0
20260506004706 63 200 0.0 0.0 0.00 0.00 0.00 29 1018.1
20260506004205 63 252 2.0 5.0 0.00 0.00 0.00 30 1017.8
20260506003700 63 202 3.0 6.0 0.00 0.00 0.00 30 1017.8
20260506003157 63 234 2.0 3.0 0.00 0.00 0.00 30 1018.0
20260506002653 63 248 1.0 3.0 0.00 0.00 0.00 29 1017.8
20260506002149 63 236 2.0 6.0 0.00 0.00 0.00 32 1017.9
20260506001644 63 293 1.0 2.0 0.00 0.00 0.00 37 1018.0
20260506001142 63 232 9.0 15.0 0.00 0.00 0.00 36 1018.0
20260506000639 63 214 0.0 0.0 0.00 0.00 0.00 37 1017.9
20260506000137 63 215 4.0 8.0 0.00 0.00 0.00 36 1018.1
20260505235635 64 242 3.0 6.0 0.00 0.00 0.00 35 1017.9
20260505235132 64 265 0.0 0.0 0.00 0.00 0.00 32 1018.0
20260505234628 63 244 11.0 14.0 0.00 0.00 0.00 32 1017.9
20260505234125 63 216 4.0 9.0 0.00 0.00 0.00 35 1017.9
20260505233623 63 280 5.0 9.0 0.00 0.00 0.00 38 1018.1
20260505233120 63 255 7.0 10.0 0.00 0.00 0.00 38 1018.0
20260505232617 63 245 2.0 3.0 0.00 0.00 0.00 38 1018.1
20260505232115 63 270 7.0 13.0 0.00 0.00 0.00 37 1018.2
20260505231612 63 236 7.0 11.0 0.00 0.00 0.00 37 1018.0
20260505231110 64 269 7.0 8.0 0.00 0.00 0.00 38 1018.0
20260505230608 64 215 3.0 6.0 0.00 0.00 0.00 38 1018.1
20260505230104 63 258 1.0 5.0 0.00 0.00 0.00 38 1018.0
20260505225600 63 232 3.0 5.0 0.00 0.00 0.00 38 1018.2
20260505225056 63 281 3.0 6.0 0.00 0.00 0.00 39 1018.4
20260505224553 62 264 2.0 6.0 0.00 0.00 0.00 40 1018.4
20260505224051 63 238 4.0 7.0 0.00 0.00 0.00 39 1018.6
20260505223548 63 250 2.0 5.0 0.00 0.00 0.00 40 1018.4
20260505223044 63 259 10.0 15.0 0.00 0.00 0.00 39 1018.5
20260505222540 63 233 4.0 8.0 0.00 0.00 0.00 39 1018.5
20260505222037 62 280 11.0 18.0 0.00 0.00 0.00 40 1018.5
20260505221534 62 230 11.0 16.0 0.00 0.00 0.00 40 1018.6
20260505221030 63 246 9.0 10.0 0.00 0.00 0.00 40 1018.8
20260505220528 62 233 1.0 5.0 0.00 0.00 0.00 40 1018.7
20260505220026 62 234 3.0 7.0 0.00 0.00 0.00 41 1019.0
20260505215524 62 218 6.0 9.0 0.00 0.00 0.00 42 1018.8
20260505215021 62 241 4.0 14.0 0.00 0.00 0.00 42 1019.1
20260505214519 62 221 7.0 13.0 0.00 0.00 0.00 43 1019.0
20260505214015 63 237 7.0 11.0 0.00 0.00 0.00 41 1019.3
20260505213513 62 206 8.0 11.0 0.00 0.00 0.00 42 1019.3
20260505213009 63 212 8.0 10.0 0.00 0.00 0.00 41 1019.3
20260505212506 62 259 6.0 9.0 0.00 0.00 0.00 42 1019.4
20260505212003 62 232 7.0 10.0 0.00 0.00 0.00 42 1019.3
20260505211500 61 267 7.0 9.0 0.00 0.00 0.00 43 1020.0
20260505210956 60 224 4.0 6.0 0.00 0.00 0.00 44 1019.8
20260505210453 61 231 0.0 3.0 0.00 0.00 0.00 45 1020.1
20260505205950 60 236 4.0 6.0 0.00 0.00 0.00 45 1020.1
20260505205449 60 218 6.0 8.0 0.00 0.00 0.00 45 1020.0
20260505204945 60 260 1.0 6.0 0.00 0.00 0.00 45 1020.1
20260505204443 60 236 5.0 13.0 0.00 0.00 0.00 46 1020.6
20260505203940 60 233 9.0 15.0 0.00 0.00 0.00 47 1020.4
20260505203437 60 200 9.0 14.0 0.00 0.00 0.00 46 1020.0
20260505202933 60 197 1.0 3.0 0.00 0.00 0.00 47 1020.5
20260505202429 59 239 10.0 13.0 0.00 0.00 0.00 47 1020.3
20260505201926 59 190 9.0 14.0 0.00 0.00 0.00 46 1020.6
20260505201423 59 270 3.0 10.0 0.00 0.00 0.00 47 1020.5
20260505200921 59 254 4.0 9.0 0.00 0.00 0.00 48 1020.6
20260505200418 59 193 2.0 7.0 0.00 0.00 0.00 48 1020.4
20260505195913 58 215 6.0 9.0 0.00 0.00 0.00 48 1020.4
20260505195411 58 257 11.0 15.0 0.00 0.00 0.00 47 1020.5
20260505194908 58 215 7.0 11.0 0.00 0.00 0.00 47 1020.4
20260505194406 58 175 7.0 14.0 0.00 0.00 0.00 46 1020.6
20260505193905 58 238 4.0 6.0 0.00 0.00 0.00 46 1020.4
20260505193404 58 269 6.0 9.0 0.00 0.00 0.00 47 1020.4
20260505192901 57 223 6.0 9.0 0.00 0.00 0.00 48 1020.5
20260505192359 57 229 1.0 5.0 0.00 0.00 0.00 52 1020.5
20260505191856 58 237 4.0 8.0 0.00 0.00 0.00 45 1020.5
20260505191355 58 255 0.0 1.0 0.00 0.00 0.00 44 1020.4
20260505190851 57 222 3.0 7.0 0.00 0.00 0.00 46 1020.4
20260505190347 58 227 1.0 3.0 0.00 0.00 0.00 43 1020.3
20260505185842 58 214 5.0 8.0 0.00 0.00 0.00 44 1020.3
20260505185339 57 219 2.0 6.0 0.00 0.00 0.00 44 1020.4
20260505184835 57 235 6.0 10.0 0.00 0.00 0.00 46 1020.5
20260505184332 57 232 3.0 5.0 0.00 0.00 0.00 48 1020.6
20260505183830 58 249 3.0 7.0 0.00 0.00 0.00 46 1020.6
20260505183326 58 237 7.0 9.0 0.00 0.00 0.00 46 1020.5
20260505182823 58 284 2.0 6.0 0.00 0.00 0.00 45 1020.4
20260505182320 59 196 11.0 16.0 0.00 0.00 0.00 44 1020.3
20260505181817 59 303 5.0 11.0 0.00 0.00 0.00 44 1020.4
20260505181314 59 308 6.0 14.0 0.00 0.00 0.00 43 1020.3
20260505180810 59 259 2.0 6.0 0.00 0.00 0.00 39 1020.3
20260505180307 58 236 4.0 8.0 0.00 0.00 0.00 40 1020.3
20260505175803 58 211 0.0 1.0 0.00 0.00 0.00 40 1020.4
20260505175300 59 217 1.0 5.0 0.00 0.00 0.00 40 1020.6
20260505174756 59 244 0.0 0.0 0.00 0.00 0.00 39 1020.4
20260505174254 58 197 1.0 5.0 0.00 0.00 0.00 39 1020.4
20260505173749 58 237 1.0 3.0 0.00 0.00 0.00 39 1020.5
20260505173246 58 241 0.0 0.0 0.00 0.00 0.00 39 1020.5
20260505172743 58 236 0.0 0.0 0.00 0.00 0.00 39 1020.5
20260505172240 58 254 5.0 8.0 0.00 0.00 0.00 39 1020.4
20260505171740 58 200 0.0 2.0 0.00 0.00 0.00 39 1020.5
20260505171237 58 208 2.0 8.0 0.00 0.00 0.00 39 1020.6
20260505170734 59 252 0.0 0.0 0.00 0.00 0.00 39 1020.5
20260505170231 59 269 0.0 1.0 0.00 0.00 0.00 38 1020.5
20260505165726 59 224 0.0 0.0 0.00 0.00 0.00 37 1020.4
20260505165223 58 266 0.0 0.0 0.00 0.00 0.00 37 1020.3
20260505164718 58 252 8.0 10.0 0.00 0.00 0.00 37 1020.5
20260505164216 58 241 3.0 7.0 0.00 0.00 0.00 37 1020.6
20260505163714 58 227 0.0 0.0 0.00 0.00 0.00 38 1020.1
20260505163212 58 250 0.0 1.0 0.00 0.00 0.00 37 1020.1
20260505162709 58 214 2.0 6.0 0.00 0.00 0.00 37 1020.4
20260505162206 58 296 3.0 10.0 0.00 0.00 0.00 36 1020.6
20260505161703 58 233 3.0 5.0 0.00 0.00 0.00 36 1020.5
20260505161201 58 259 6.0 9.0 0.00 0.00 0.00 36 1020.6
20260505160658 58 250 0.0 0.0 0.00 0.00 0.00 36 1020.6
20260505160155 58 221 1.0 3.0 0.00 0.00 0.00 36 1020.4
20260505153134 58 229 0.0 1.0 0.00 0.00 0.00 39 1020.4
20260505152631 58 230 0.0 0.0 0.00 0.00 0.00 40 1020.1
20260505152127 58 256 0.0 0.0 0.00 0.00 0.00 39 1020.3
20260505151622 58 229 0.0 1.0 0.00 0.00 0.00 39 1020.0
20260505151120 58 235 2.0 2.0 0.00 0.00 0.00 40 1020.0
20260505150616 58 238 0.0 2.0 0.00 0.00 0.00 40 1020.3
20260505150113 58 227 0.0 0.0 0.00 0.00 0.00 40 1020.3
20260505140541 58 234 0.0 2.0 0.00 0.00 0.00 38 1020.4
20260505124955 59 233 0.0 0.0 0.00 0.00 0.00 35 1020.0
20260505124452 59 214 0.0 0.0 0.00 0.00 0.00 34 1020.0
20260505123948 59 227 5.0 13.0 0.00 0.00 0.00 34 1019.9
20260505123444 59 250 0.0 1.0 0.00 0.00 0.00 34 1020.3
20260505122940 59 246 0.0 0.0 0.00 0.00 0.00 34 1020.0
20260505122438 58 221 3.0 6.0 0.00 0.00 0.00 34 1019.8
20260505121935 58 234 0.0 0.0 0.00 0.00 0.00 35 1019.9
20260505121432 58 233 0.0 0.0 0.00 0.00 0.00 35 1019.9
20260505120927 58 234 0.0 0.0 0.00 0.00 0.00 35 1019.8
20260505120424 58 238 0.0 0.0 0.00 0.00 0.00 34 1019.7
20260505115923 59 231 0.0 0.0 0.00 0.00 0.00 34 1019.7
20260505115420 59 253 0.0 0.0 0.00 0.00 0.00 34 1019.7
20260505114918 59 253 0.0 0.0 0.00 0.00 0.00 34 1020.0
20260505114414 59 239 0.0 0.0 0.00 0.00 0.00 35 1019.5
20260505113910 59 236 0.0 0.0 0.00 0.00 0.00 35 1019.8
20260505113407 59 253 0.0 0.0 0.00 0.00 0.00 35 1019.7
20260505112903 59 239 0.0 0.0 0.00 0.00 0.00 34 1019.9
20260505112401 59 265 0.0 0.0 0.00 0.00 0.00 34 1019.9
20260505111856 59 249 0.0 0.0 0.00 0.00 0.00 34 1019.8
20260505111351 59 245 0.0 0.0 0.00 0.00 0.00 34 1020.0
20260505110847 59 246 4.0 6.0 0.00 0.00 0.00 34 1020.0
20260505110345 59 248 3.0 5.0 0.00 0.00 0.00 34 1019.8
20260505101815 60 222 0.0 0.0 0.00 0.00 0.00 33 1019.7
20260505101310 60 221 1.0 3.0 0.00 0.00 0.00 32 1019.7
20260505100806 60 221 0.0 0.0 0.00 0.00 0.00 32 1019.4
20260505100258 60 219 0.0 0.0 0.00 0.00 0.00 32 1019.5
20260505095753 60 217 0.0 0.0 0.00 0.00 0.00 32 1019.7
20260505095251 60 214 0.0 0.0 0.00 0.00 0.00 32 1019.4
20260505094746 60 187 0.0 0.0 0.00 0.00 0.00 34 1019.3
20260505094244 59 134 0.0 0.0 0.00 0.00 0.00 33 1019.7
20260505093739 59 135 0.0 0.0 0.00 0.00 0.00 34 1019.7
20260505093237 59 139 0.0 0.0 0.00 0.00 0.00 34 1019.9
20260505092734 59 128 0.0 0.0 0.00 0.00 0.00 34 1019.8
20260505092233 57 128 0.0 0.0 0.00 0.00 0.00 36 1019.7
20260505091729 59 160 0.0 0.0 0.00 0.00 0.00 36 1020.1
20260505091228 58 160 0.0 0.0 0.00 0.00 0.00 35 1019.9
20260505090725 58 160 0.0 0.0 0.00 0.00 0.00 36 1020.0
20260505090223 59 172 0.0 0.0 0.00 0.00 0.00 36 1020.1
20260505085720 59 176 0.0 0.0 0.00 0.00 0.00 34 1020.0
20260505085218 59 165 0.0 0.0 0.00 0.00 0.00 34 1020.1
20260505084715 58 159 0.0 0.0 0.00 0.00 0.00 35 1020.4
20260505084214 58 158 0.0 0.0 0.00 0.00 0.00 37 1020.3
20260505083710 57 159 0.0 0.0 0.00 0.00 0.00 36 1020.0
20260505083208 58 161 0.0 0.0 0.00 0.00 0.00 37 1020.1
20260505082703 59 161 0.0 0.0 0.00 0.00 0.00 36 1020.4
20260505082201 59 163 0.0 0.0 0.00 0.00 0.00 34 1020.4
20260505081656 59 163 0.0 0.0 0.00 0.00 0.00 34 1020.4
20260505081154 59 164 0.0 0.0 0.00 0.00 0.00 33 1020.4
20260505080651 59 160 0.0 0.0 0.00 0.00 0.00 34 1020.7
20260505080147 59 160 0.0 0.0 0.00 0.00 0.00 34 1020.7
20260505075643 59 160 0.0 0.0 0.00 0.00 0.00 34 1020.5
20260505075140 59 161 0.0 0.0 0.00 0.00 0.00 34 1020.5
20260505074637 59 166 0.0 0.0 0.00 0.00 0.00 34 1020.6
20260505074134 59 169 0.0 0.0 0.00 0.00 0.00 33 1020.3
20260505073632 58 180 0.0 0.0 0.00 0.00 0.00 35 1019.9
20260505073130 59 185 0.0 0.0 0.00 0.00 0.00 34 1020.0
20260505072625 59 190 0.0 0.0 0.00 0.00 0.00 33 1020.1
20260505072122 59 204 0.0 0.0 0.00 0.00 0.00 34 1020.0